DMSP 5D-2 F13 DEB, 42319

Orbit data source: Space-Track

DMSP 5D-2 F13 DEB, 42319 is space debris in SSO originally from a launch on Fri, 24 Mar 1995 UTC launched from the Air Force Western Test Range (AFWTR). Debris objects in space refer to the collection of defunct objects orbiting the Earth. Examples of debris include non-operational satellites, rocket bodies, and fragments generated from explosions, collisions, or faulty payload assembly.

Loading next visibility...
Identifier
42319, 1995-015JM
Orbit
SSO
Country
Flag of USUS
Related business
Manufacturer
Unknown
Mission
Spacecraft
Bus & Motor
Unknown
Mass
Unknown
Launch date (UTC)
1995-03-24 (31 years ago)
Launch vehicle
Unknown
Launch site
Air Force Western Test Range (AFWTR)
Object type
Payload
Rocket body
Debris
Shape & HBR
Unknown shape, 0.1 m
Radar Cross Section
Small (<0.1 m²)

Expand to show TLE details & history
Last TLE update: 4 days ago

TLE from 4 days ago
0 DMSP 5D-2 F13 DEB
1 42319U 95015JM  25300.56091328  .00007838  00000-0  27805-2 0  9993
2 42319  98.8845 335.1323 0024653 283.9488  75.8955 14.34560817544916
Epoch: 2025-10-27T13:27Z
TLE epoch observation values (Epoch: 2025-10-27T13:27:42.907Z)
Latitude
0.00003°
Longitude
97.04252°
Altitude
775.197 km
Speed
7.469 km/s
True Right ascension
22h 20m 31s
True Declination
0° 00' 00"
Sunlit
Object was in full shadow at epoch
Visualization orbit readout
Latitude
Unknown
Longitude
Unknown
Altitude
Unknown
Speed
Unknown
Apparent Right ascension
Unknown
Apparent Declination
Unknown
Sunlit
N/A
Visualization observer readout
Local Sidereal Time
20:01:49
Azimuth
Unknown
Elevation
Unknown
Doppler factor
Unknown
Orbital elements
Apogee altitude
791.305 km
Perigee altitude
756.043 km
Semi-major axis
7,151.811 km
Eccentricity
0.00247
Inclination
98.8845°
RAAN
335.1323°
Arg. of periapsis
283.9488°
True anomaly
76.16969°
Mean anomaly
75.8955°
Eccentric anomaly
76.03257°
Mean motion
3.58855 °/min
Orbital period
100.32 mins
BSTAR
0.0027805
Loading maneuver chart data...
Computing Atmospheric mass density...

Documentation

Showing up to 5 results
|